Linton Municipal Airport, ND

11:41 AM CDT on May 27, 2018 (GMT -0500)
Linton Municipal Airport

Weather History for K7L2 - August, 2014

Change the Weather History Date:

Wednesday, August 13, 2014

  Actual Average (WUND) Record (WUND)
Temperature  
Mean Temperature 72 °F -  
Max Temperature 86 °F - - (-1)
Min Temperature 59 °F - - (-1)
Cooling Degree Days 8    
Growing Degree Days 22 (Base 50)    
Moisture  
Dew Point 59 °F    
Average Humidity 63    
Maximum Humidity 94    
Minimum Humidity 42    
Precipitation  
Precipitation 0.00 in - - ()
Sea Level Pressure  
Sea Level Pressure 30.03 in    
Wind  
Wind Speed 11 mph (SE)    
Max Wind Speed 17 mph    
Max Gust Speed 26 mph    
Visibility 10 miles    
Events      
Averages and records for this station are not official NWS values.
T = Trace of Precipitation, MM = Missing Value Source: NWS Daily Summary

Daily Weather History Graph

Daily Weather History Graph

Search for Another Location

Airport or City:

Astronomy

Aug. 13, 2014 Rise Set
Actual Time 6:37 AM CDT 8:53 PM CDT
Civil Twilight 6:04 AM CDT 9:26 PM CDT
Nautical Twilight 5:23 AM CDT 10:07 PM CDT
Astronomical Twilight 4:37 AM CDT 10:52 PM CDT
Moon 10:23 PM CDT (8/13) 10:22 AM CDT (8/13)
Length of Visible Light 15h 21m
Length of Day
14h 15m
Waning Gibbous, 87% of the Moon is Illuminated
Aug 13
Waning Gibbous
Aug 17
Last Quarter
Aug 25
New
Sep 2
First Quarter
Sep 8
Full

Hourly Weather History & Observations

Time (CDT) Temp. Heat Index Dew Point Humidity Pressure Visibility Wind Dir Wind Speed Gust Speed Precip Events Conditions
12:15 AM 66.2 °F - 59.0 °F 78% 30.05 in 10.0 mi SE 8.1 mph - N/A   Clear
12:35 AM 64.4 °F - 59.0 °F 83% 30.05 in 10.0 mi SSE 9.2 mph - N/A   Clear
1:15 AM 64.4 °F - 59.0 °F 83% 30.06 in 10.0 mi SE 9.2 mph - N/A   Clear
1:35 AM 64.4 °F - 57.2 °F 77% 30.06 in 10.0 mi SE 10.4 mph - N/A   Clear
1:55 AM 62.6 °F - 57.2 °F 82% 30.06 in 10.0 mi SE 10.4 mph - N/A   Clear
2:15 AM 62.6 °F - 57.2 °F 82% 30.06 in 10.0 mi SE 10.4 mph - N/A   Clear
2:35 AM 62.6 °F - 57.2 °F 82% 30.06 in 10.0 mi SE 10.4 mph - N/A   Clear
2:55 AM 62.6 °F - 57.2 °F 82% 30.06 in 10.0 mi SE 10.4 mph - N/A   Clear
3:15 AM 62.6 °F - 57.2 °F 82% 30.05 in 10.0 mi SE 10.4 mph - N/A   Clear
3:35 AM 62.6 °F - 57.2 °F 82% 30.05 in 10.0 mi SE 8.1 mph - N/A   Clear
3:55 AM 62.6 °F - 57.2 °F 82% 30.05 in 10.0 mi SE 10.4 mph - N/A   Scattered Clouds
4:15 AM 60.8 °F - 57.2 °F 88% 30.05 in 10.0 mi ESE 8.1 mph - N/A   Mostly Cloudy
4:35 AM 60.8 °F - 57.2 °F 88% 30.06 in 10.0 mi ESE 9.2 mph - N/A   Scattered Clouds
4:55 AM 59.0 °F - 57.2 °F 94% 30.06 in 10.0 mi ESE 9.2 mph - N/A   Mostly Cloudy
5:15 AM 59.0 °F - 57.2 °F 94% 30.05 in 10.0 mi SE 9.2 mph - N/A   Mostly Cloudy
5:35 AM 62.6 °F - 57.2 °F 82% 30.05 in 10.0 mi SE 8.1 mph - N/A   Overcast
5:55 AM 60.8 °F - 57.2 °F 88% 30.05 in 10.0 mi SE 9.2 mph - N/A   Overcast
6:15 AM 60.8 °F - 59.0 °F 94% 30.05 in 10.0 mi SE 9.2 mph - N/A   Mostly Cloudy
6:35 AM 60.8 °F - 59.0 °F 94% 30.05 in 10.0 mi ESE 6.9 mph - N/A   Mostly Cloudy
8:35 AM 64.4 °F - 59.0 °F 83% 30.06 in 10.0 mi SE 8.1 mph - N/A   Partly Cloudy
8:55 AM 66.2 °F - 59.0 °F 78% 30.06 in 10.0 mi SE 11.5 mph - N/A   Scattered Clouds
9:15 AM 68.0 °F - 59.0 °F 73% 30.07 in 10.0 mi SSE 10.4 mph - N/A   Mostly Cloudy
10:15 AM 73.4 °F - 59.0 °F 61% 30.06 in 10.0 mi SSE 12.7 mph 17.3 mph N/A   Scattered Clouds
10:35 AM 75.2 °F - 60.8 °F 61% 30.06 in 10.0 mi SE 11.5 mph 16.1 mph N/A   Scattered Clouds
10:55 AM 77.0 °F - 59.0 °F 54% 30.06 in 10.0 mi SE 10.4 mph - N/A   Partly Cloudy
11:15 AM 78.8 °F - 59.0 °F 51% 30.05 in 10.0 mi SSE 12.7 mph 17.3 mph N/A   Clear
11:35 AM 80.6 °F 81.1 °F 59.0 °F 48% 30.05 in 10.0 mi SSE 15.0 mph - N/A   Clear
11:55 AM 82.4 °F 82.5 °F 59.0 °F 45% 30.05 in 10.0 mi SSE 15.0 mph 23.0 mph N/A   Clear
12:15 PM 82.4 °F 82.5 °F 59.0 °F 45% 30.05 in 10.0 mi SE 12.7 mph 19.6 mph N/A   Clear
12:35 PM 84.2 °F 84.4 °F 60.8 °F 45% 30.04 in 10.0 mi SE 13.8 mph - N/A   Clear
12:55 PM 84.2 °F 85.0 °F 62.6 °F 48% 30.04 in 10.0 mi SSE 12.7 mph 18.4 mph N/A   Clear
1:15 PM 84.2 °F 84.4 °F 60.8 °F 45% 30.03 in 10.0 mi SE 15.0 mph 19.6 mph N/A   Clear
1:35 PM 84.2 °F 84.4 °F 60.8 °F 45% 30.03 in 10.0 mi SSE 15.0 mph 19.6 mph N/A   Clear
1:55 PM 84.2 °F 85.0 °F 62.6 °F 48% 30.03 in 10.0 mi SE 13.8 mph 20.7 mph N/A   Clear
2:15 PM 84.2 °F 84.4 °F 60.8 °F 45% 30.02 in 10.0 mi SE 15.0 mph 23.0 mph N/A   Clear
2:35 PM 84.2 °F 83.8 °F 59.0 °F 42% 30.02 in 10.0 mi SE 15.0 mph 24.2 mph N/A   Partly Cloudy
3:15 PM 86.0 °F 86.1 °F 60.8 °F 43% 30.01 in 10.0 mi SE 15.0 mph 23.0 mph N/A   Clear
3:35 PM 84.2 °F 83.8 °F 59.0 °F 42% 30.01 in 10.0 mi SE 15.0 mph 24.2 mph N/A   Clear
3:55 PM 84.2 °F 84.4 °F 60.8 °F 45% 30.01 in 10.0 mi SE 16.1 mph 26.5 mph N/A   Clear
4:15 PM 86.0 °F 86.1 °F 60.8 °F 43% 30.01 in 10.0 mi SE 15.0 mph 24.2 mph N/A   Clear
4:35 PM 86.0 °F 86.1 °F 60.8 °F 43% 30.00 in 10.0 mi SE 16.1 mph 24.2 mph N/A   Clear
4:55 PM 84.2 °F 85.0 °F 62.6 °F 48% 29.99 in 10.0 mi SE 17.3 mph 24.2 mph N/A   Clear
5:15 PM 84.2 °F 85.0 °F 62.6 °F 48% 30.00 in 10.0 mi SSE 17.3 mph 23.0 mph N/A   Clear
5:35 PM 82.4 °F 82.5 °F 59.0 °F 45% 29.99 in 10.0 mi SE 12.7 mph 25.3 mph N/A   Clear
5:55 PM 84.2 °F 84.4 °F 60.8 °F 45% 29.99 in 10.0 mi SE 11.5 mph 19.6 mph N/A   Clear
6:15 PM 82.4 °F 82.9 °F 60.8 °F 48% 29.99 in 10.0 mi SE 15.0 mph 21.9 mph N/A   Clear
6:35 PM 82.4 °F 82.9 °F 60.8 °F 48% 29.99 in 10.0 mi SE 15.0 mph 21.9 mph N/A   Clear
6:55 PM 82.4 °F 82.9 °F 60.8 °F 48% 29.99 in 10.0 mi SE 13.8 mph 20.7 mph N/A   Clear
7:15 PM 80.6 °F 81.1 °F 59.0 °F 48% 29.99 in 10.0 mi SE 10.4 mph 23.0 mph N/A   Clear
7:55 PM 80.6 °F 81.1 °F 59.0 °F 48% 29.99 in 10.0 mi ESE 10.4 mph 18.4 mph N/A   Clear
8:35 PM 77.0 °F - 59.0 °F 54% 29.99 in 10.0 mi ESE 10.4 mph - N/A   Clear
8:55 PM 75.2 °F - 59.0 °F 57% 29.99 in 10.0 mi ESE 10.4 mph - N/A   Clear
9:55 PM 71.6 °F - 62.6 °F 73% 30.00 in 10.0 mi ESE 11.5 mph - N/A   Clear
11:15 PM 71.6 °F - 59.0 °F 64% 30.01 in 10.0 mi ESE 12.7 mph 18.4 mph N/A   Clear
11:35 PM 71.6 °F - 59.0 °F 64% 30.01 in 10.0 mi ESE 11.5 mph 16.1 mph N/A   Clear
11:55 PM 71.6 °F - 59.0 °F 64% 30.01 in 10.0 mi ESE 12.7 mph 17.3 mph N/A   Clear